Ithaca, NY

3:14 PM EST on December 15, 2017 (GMT -0500)
Tompkins County

Weather History for KITH - January, 2014

Change the Weather History Date:

Friday, January 24, 2014

  Actual Average Record
Temperature  
Mean Temperature 8 °F -  
Max Temperature 15 °F 34 °F 61 °F (1967)
Min Temperature 0 °F 16 °F -15 °F (1948)
Degree Days  
Heating Degree Days 58    
Moisture  
Dew Point -4 °F    
Average Humidity 56    
Maximum Humidity 78    
Minimum Humidity 38    
Precipitation  
Precipitation 0.00 in - - ()
Sea Level Pressure  
Sea Level Pressure 30.09 in    
Wind  
Wind Speed 11 mph (SW)    
Max Wind Speed 24 mph    
Max Gust Speed 22 mph    
Visibility 10 miles    
Events      
Averages and records for this station are not official NWS values.
T = Trace of Precipitation, MM = Missing Value Source: NWS Daily Summary

Daily Weather History Graph

Daily Weather History Graph

Search for Another Location

Airport or City:

Trip Planner

Search our weather history database for the weather conditions in past years. The results will help you decide how hot, cold, wet, or windy it might be!

Date:

Astronomy

Jan. 24, 2014 Rise Set
Actual Time 7:27 AM EST 5:09 PM EST
Civil Twilight 6:56 AM EST 5:39 PM EST
Nautical Twilight 6:22 AM EST 6:13 PM EST
Astronomical Twilight 5:49 AM EST 6:47 PM EST
Moon 12:50 AM EST (1/24) 11:27 AM EST (1/24)
Length of Visible Light 10h 43m
Length of Day
9h 42m
Last Quarter, 45% of the Moon is Illuminated
Jan 24
Last Quarter
Jan 30
New
Feb 6
First Quarter
Feb 14
Full
Feb 22
Last Quarter

Hourly Weather History & Observations

Time (EST) Temp. Windchill Dew Point Humidity Pressure Visibility Wind Dir Wind Speed Gust Speed Precip Events Conditions
5:15 AM 1.4 °F -13.5 °F -5.8 °F 72% 30.29 in 10.0 mi West 9.2 mph - N/A   Partly Cloudy
5:56 AM 1.4 °F -14.5 °F -5.8 °F 72% 30.30 in 10.0 mi West 10.4 mph - N/A   Scattered Clouds
6:30 AM 1.4 °F -13.5 °F -5.8 °F 72% 30.30 in 10.0 mi West 9.2 mph - N/A   Scattered Clouds
6:56 AM -0.4 °F -13.4 °F -5.8 °F 78% 30.31 in 10.0 mi West 6.9 mph - N/A   Partly Cloudy
7:56 AM 1.4 °F -11.3 °F -5.8 °F 72% 30.30 in 10.0 mi WSW 6.9 mph - N/A   Partly Cloudy
8:56 AM 1.4 °F -6.2 °F -5.8 °F 72% 30.29 in 10.0 mi Variable 3.5 mph - N/A   Partly Cloudy
9:56 AM 5.0 °F -9.1 °F -4.0 °F 66% 30.28 in 10.0 mi West 9.2 mph - N/A   Partly Cloudy
10:56 AM 8.6 °F -3.7 °F -2.2 °F 62% 30.26 in 10.0 mi WNW 8.1 mph - N/A   Partly Cloudy
11:56 AM 10.4 °F -3.3 °F -2.2 °F 57% 30.21 in 10.0 mi WSW 10.4 mph - N/A   Partly Cloudy
12:56 PM - - - N/A% - - North - - N/A   Unknown
1:56 PM 15.8 °F 3.4 °F -2.2 °F 45% 30.09 in 10.0 mi WSW 10.4 mph - N/A   Partly Cloudy
2:56 PM 15.8 °F 2.1 °F -5.8 °F 38% 30.04 in 10.0 mi SW 12.7 mph - N/A   Clear
3:56 PM 15.8 °F 1.4 °F -2.2 °F 45% 30.02 in 10.0 mi SW 13.8 mph 21.9 mph N/A   Scattered Clouds
4:56 PM 15.8 °F 3.4 °F -2.2 °F 45% 29.99 in 10.0 mi SW 10.4 mph 21.9 mph N/A   Mostly Cloudy
5:56 PM 15.8 °F 3.4 °F -2.2 °F 45% 29.97 in 10.0 mi SW 10.4 mph 21.9 mph N/A   Overcast
6:56 PM 14.0 °F -3.0 °F -2.2 °F 49% 29.94 in 10.0 mi SSW 18.4 mph - N/A   Overcast
7:56 PM 14.0 °F -5.1 °F -4.0 °F 45% 29.88 in 10.0 mi South 24.2 mph - N/A   Overcast
8:56 PM 14.0 °F - -2.2 °F 49% 29.86 in 10.0 mi North - - N/A   Overcast
9:56 PM 14.0 °F -3.4 °F -4.0 °F 45% 29.82 in 10.0 mi SSE 19.6 mph - N/A   Overcast
10:15 PM 14.0 °F -2.0 °F -2.2 °F 49% 29.80 in 10.0 mi South 16.1 mph - N/A   Overcast
10:56 PM 15.8 °F 0.3 °F -2.2 °F 45% 29.79 in 10.0 mi South 16.1 mph - N/A   Overcast